This demonstration page uses our WeatherBlox Daily Observations layout. Learn more.

Hourly Observations for August 24, 2017

Temp ( °F °C ) Dew Point ( °F °C ) Humidity (%) Winds ( mph kmh ) Pressure ( in mb ) Visibility ( mi km ) Precip ( " mm )
12:15 am 00:15 Clear 64 17.9 53 11.6 67 67 SE 6 9 29.97 1015 10 16.09344 0 0
12:35 am 00:35 Clear 64 17.9 52 11.3 65 65 SE 6 9 29.97 1015 10 16.09344 0 0
12:55 am 00:55 Clear 64 17.9 52 11.1 65 65 SE 6 9 29.97 1015 10 16.09344 0 0
1:15 am 01:15 Clear 64 17.5 51 10.7 65 65 SSE 7 11 29.97 1015 10 16.09344 0 0
1:35 am 01:35 Clear 65 18.1 51 10.5 61 61 SSE 9 15 29.97 1015 10 16.09344 0 0
1:55 am 01:55 Clear 65 18.1 50 10.2 60 60 S 8 13 29.97 1015 10 16.09344 0 0
2:15 am 02:15 Clear 65 18.6 50 9.9 57 57 S 9 15 29.97 1015 10 16.09344 0 0
2:35 am 02:35 Clear 65 18.5 50 9.9 57 57 S 8 13 29.94 1014 10 16.09344 0 0
2:55 am 02:55 Clear 65 18.5 50 10 58 58 SSE 8 13 29.94 1014 10 16.09344 0 0
3:15 am 03:15 Clear 65 18.3 50 10.1 59 59 S 7 11 29.94 1014 10 16.09344 0 0
3:35 am 03:35 Clear 65 18.1 50 10.1 60 60 S 8 13 29.94 1014 10 16.09344 0 0
3:55 am 03:55 Clear 64 18 51 10.3 61 61 S 8 13 29.94 1014 10 16.09344 0 0
4:15 am 04:15 Clear 64 17.8 51 10.3 62 62 S 8 13 29.94 1014 10 16.09344 0 0
4:35 am 04:35 Clear 65 18.5 51 10.5 60 60 S 10 17 29.94 1014 10 16.09344 0 0
4:55 am 04:55 Clear 65 18.6 51 10.5 59 59 S 10 17 29.94 1014 10 16.09344 0 0
5:15 am 05:15 Clear 65 18.3 51 10.6 61 61 S 9 15 29.94 1014 10 16.09344 0 0
5:35 am 05:35 Clear 64 18 51 10.7 63 63 S 9 15 29.91 1013 10 16.09344 0 0
5:55 am 05:55 Clear 64 17.6 52 11 65 65 S 7 11 29.91 1013 10 16.09344 0 0
6:15 am 06:15 Clear 64 17.7 52 11 65 65 S 8 13 29.91 1013 10 16.09344 0 0
6:35 am 06:35 Clear 63 17.4 52 11.1 67 67 S 6 9 29.91 1013 10 16.09344 0 0
6:55 am 06:55 Clear 63 17.4 52 11.2 67 67 S 6 9 29.91 1013 10 16.09344 0 0
7:15 am 07:15 Sunny 64 17.5 53 11.4 68 68 SSE 5 7 29.94 1014 10 16.09344 0 0
7:35 am 07:35 Sunny 64 17.5 53 11.6 69 69 S 7 11 29.94 1014 10 16.09344 0 0
7:55 am 07:55 Sunny 64 17.9 54 12 69 69 S 8 13 29.94 1014 10 16.09344 0 0
8:15 am 08:15 Sunny 65 18.5 54 12.4 68 68 S 8 13 29.94 1014 10 16.09344 0 0
8:35 am 08:35 Sunny 66 19 55 12.8 67 67 S 7 11 29.94 1014 10 16.09344 0 0
8:55 am 08:55 Sunny 68 19.8 56 13.3 66 66 S 9 15 29.94 1014 10 16.09344 0 0
9:15 am 09:15 Sunny 69 20.8 58 14.3 66 66 S 8 13 29.91 1013 10 16.09344 0 0
9:35 am 09:35 Sunny 71 21.8 59 15.2 66 66 SSW 9 15 29.91 1013 10 16.09344 0 0
9:55 am 09:55 Sunny 72 22 60 15.7 68 68 SSW 10 17 29.91 1013 10 16.09344 0 0
10:15 am 10:15 Sunny 73 22.6 62 16.5 69 69 SSW 10 17 29.88 1012 10 16.09344 0 0
10:35 am 10:35 Sunny 74 23.2 62 16.6 67 67 WSW 7 11 29.91 1013 10 16.09344 0 0
10:55 am 10:55 Sunny 75 23.8 64 17.5 68 68 SW 9 15 29.88 1012 10 16.09344 0 0
11:15 am 11:15 Sunny 76 24.2 63 17 64 64 SW 7 11 29.88 1012 10 16.09344 0 0
11:35 am 11:35 Sunny 76 24.3 64 17.6 66 66 SW 8 13 29.88 1012 10 16.09344 0 0
11:55 am 11:55 Sunny 78 25.4 64 18 64 64 SSW 7 11 29.88 1012 10 16.09344 0 0
12:15 pm 12:15 Sunny 78 25.7 65 18.1 63 63 SW 6 9 29.88 1012 10 16.09344 0 0
12:35 pm 12:35 Sunny 79 26.3 65 18.4 62 62 SW 5 7 29.85 1011 10 16.09344 0 0
12:55 pm 12:55 Sunny 80 26.5 65 18.5 62 62 SSW 7 11 29.85 1011 10 16.09344 0 0
1:15 pm 13:15 Sunny 81 27.1 67 19.5 63 63 S 8 13 29.83 1010 10 16.09344 0 0
1:35 pm 13:35 Sunny 83 28.1 68 20.2 62 62 SSW 7 11 29.83 1010 10 16.09344 0 0
1:55 pm 13:55 Sunny 83 28.6 68 20 60 60 S 9 15 29.83 1010 10 16.09344 0 0
2:15 pm 14:15 Sunny 84 28.9 69 20.5 61 61 S 12 19 29.8 1009 10 16.09344 0 0
2:35 pm 14:35 Sunny 84 28.9 69 20.6 61 61 S 12 19 29.8 1009 10 16.09344 0 0
2:55 pm 14:55 Sunny 85 29.5 69 20.4 58 58 S 13 20 29.8 1009 10 16.09344 0 0
3:15 pm 15:15 Partly Cloudy 85 29.7 69 20.4 57 57 S 14 22 29.8 1009 10 16.09344 0 0
3:35 pm 15:35 Mostly Cloudy 85 29.3 69 20.6 59 59 SSE 14 22 29.8 1009 10 16.09344 0 0
3:55 pm 15:55 Mostly Cloudy 84 29.1 68 20.2 59 59 SSE 17 28 29.8 1009 10 16.09344 0 0
4:15 pm 16:15 Partly Cloudy 84 29 68 20.2 59 59 SSE 16 26 29.8 1009 10 16.09344 0 0
4:35 pm 16:35 Sunny 84 28.8 68 19.9 59 59 SSE 18 30 29.77 1008 10 16.09344 0 0
4:55 pm 16:55 Sunny 83 28.4 67 19.7 59 59 SSE 14 22 29.77 1008 10 16.09344 0 0
5:15 pm 17:15 Sunny 84 28.7 68 20.1 60 60 SSE 12 19 29.77 1008 10 16.09344 0 0
5:35 pm 17:35 Partly Cloudy 83 28.2 67 19.3 59 59 S 15 24 29.77 1008 10 16.09344 0 0
5:55 pm 17:55 Sunny 83 28.2 67 19.4 59 59 S 12 19 29.77 1008 10 16.09344 0 0
6:15 pm 18:15 Sunny 82 27.8 67 19.4 60 60 SSE 12 19 29.77 1008 10 16.09344 0 0
6:35 pm 18:35 Sunny 82 27.5 67 19.5 62 62 SE 12 19 29.77 1008 10 16.09344 0 0
6:55 pm 18:55 Sunny 81 27.3 67 19.4 62 62 SSE 12 19 29.77 1008 10 16.09344 0 0
7:15 pm 19:15 Sunny 81 27 67 19.2 62 62 SSE 10 17 29.77 1008 10 16.09344 0 0
7:35 pm 19:35 Sunny 80 26.5 66 19 63 63 SSE 9 15 29.77 1008 10 16.09344 0 0
7:55 pm 19:55 Sunny 79 25.9 66 18.7 65 65 SSE 9 15 29.8 1009 10 16.09344 0 0
8:15 pm 20:15 Sunny 78 25.4 65 18.4 65 65 SSE 9 15 29.8 1009 10 16.09344 0 0
8:35 pm 20:35 Clear 76 24.2 65 18.5 71 71 SSE 9 15 29.8 1009 10 16.09344 0 0
8:55 pm 20:55 Clear 75 23.8 65 18.2 71 71 SSE 10 17 29.83 1010 10 16.09344 0 0
9:15 pm 21:15 Clear 74 23.6 64 17.7 70 70 SSE 12 19 29.83 1010 10 16.09344 0 0
9:35 pm 21:35 Clear 74 23.3 64 17.5 70 70 SSE 9 15 29.83 1010 10 16.09344 0 0
9:55 pm 21:55 Clear 73 23 63 17 69 69 SSE 10 17 29.83 1010 10 16.09344 0 0
10:15 pm 22:15 Clear 73 22.6 62 16.5 69 69 SSE 9 15 29.85 1011 10 16.09344 0 0
10:35 pm 22:35 Clear 73 22.8 61 16 66 66 SSE 8 13 29.88 1012 10 16.09344 0 0
10:55 pm 22:55 Clear 73 23 60 15.6 63 63 SSE 10 17 29.88 1012 10 16.09344 0 0
11:15 pm 23:15 Clear 73 22.8 60 15.5 64 64 SE 8 13 29.88 1012 10 16.09344 0 0
11:35 pm 23:35 Clear 72 22 60 15.6 67 67 SE 9 15 29.85 1011 10 16.09344 0 0
11:55 pm 23:55 Clear with Nearby Thunderstorms 71 21.6 60 15.3 68 68 SE 10 17 29.85 1011 10 16.09344 0 0

Powered by AerisWeather